This is the latest recevied weather packets stored in our database for station/object KD8OZS. If no packets are shown the sender has not sent any weather packets the latest 10 day(s).
| Time | Temp. | Humidity | Pressure | Rain* | Wind** | Luminosity | Snow |
|---|---|---|---|---|---|---|---|
| 1787407718 | 25° C | 81% | 1006.1 hPa | 0 mm | - | 234 W/m² | - |
| 1787407413 | 24.44° C | 82% | 1006.3 hPa | 0 mm | - | 534 W/m² | - |
| 1787407109 | 25° C | 82% | 1006.5 hPa | 0 mm | - | 226 W/m² | - |
| 1787406805 | 24.44° C | 81% | 1006.4 hPa | 0 mm | - | 583 W/m² | - |
| 1787406504 | 24.44° C | 83% | 1006.6 hPa | 0 mm | - | 479 W/m² | - |
| 1787406201 | 24.44° C | 84% | 1006.4 hPa | 0 mm | - | 455 W/m² | - |
| 1787405897 | 23.89° C | 82% | 1006.4 hPa | 0 mm | - | 502 W/m² | - |
| 1787405594 | 23.33° C | 85% | 1006.4 hPa | 0 mm | - | 473 W/m² | - |
| 1787405293 | 22.78° C | 86% | 1006.6 hPa | 0 mm | - | 347 W/m² | - |
| 1787404990 | 22.22° C | 87% | 1006.6 hPa | 0 mm | - | 422 W/m² | - |
| 1787404685 | 22.22° C | 88% | 1006.8 hPa | 0 mm | - | 483 W/m² | - |
| 1787404384 | 21.67° C | 88% | 1006.8 hPa | 0 mm | - | 179 W/m² | - |
| 1787404080 | 21.11° C | 90% | 1006.6 hPa | 0 mm | - | 174 W/m² | - |
| 1787403775 | 20.56° C | 94% | 1006.8 hPa | 0 mm | - | 477 W/m² | - |
| 1787403474 | 20° C | 96% | 1006.8 hPa | 0 mm | - | 410 W/m² | - |
| 1787403170 | 20° C | 97% | 1006.8 hPa | 0 mm | - | 354 W/m² | - |
| 1787402867 | 19.44° C | 98% | 1006.9 hPa | 0 mm | - | 334 W/m² | - |
| 1787402562 | 18.89° C | 99% | 1007.1 hPa | 0 mm | - | 408 W/m² | - |
| 1787402260 | 18.33° C | 99% | 1006.9 hPa | 0 mm | - | 147 W/m² | - |
| 1787401956 | 18.33° C | 99% | 1007 hPa | 0 mm | - | 102 W/m² | - |
| 1787401652 | 18.33° C | 99% | 1007.2 hPa | 0 mm | - | 109 W/m² | - |
| 1787401347 | 18.33° C | 99% | 1007.1 hPa | 0 mm | - | 116 W/m² | - |
| 1787401042 | 17.78° C | 99% | 1007.2 hPa | 0 mm | - | 107 W/m² | - |
| 1787400738 | 17.78° C | 99% | 1007 hPa | 0 mm | - | 97 W/m² | - |
| 1787400438 | 17.78° C | 99% | 1007 hPa | 0 mm | - | 89 W/m² | - |
* Rain latest hour (hover to see other rain measurements)
** Current wind speed in m/s (hover to see current wind gust speed)